Retour au catalogue

STARLINK-3871

ActifCommunicationsVLEO
NORAD 52496·PAYLOAD·🇺🇸 United States

Lancé May 6, 2022 depuis Cape Canaveral Space Force Station

Loading…

Prochains Passages (prochaines 24 heures)

TLE

FraisSource: CelesTrak SupGP

Époque: Sep 14, 2026, 20:37 UTC

1 52496C 22049AX  26257.85951389  .00041825  00000+0  12361-2 0  2574
2 52496  53.1602 263.7610 0001292  91.2954  77.8132 15.34360339    10

Suivez STARLINK-3871 en temps réel avec AllMySat

Download on the App Store